Location: Baller�as
(41.9020°N, 0.1554°W)
Time: 10:56:45
(UTC+00:00)

Lacrosse 4 Rocket - Pass Details

Date: 10 August 2020
Orbit: 544 x 615 km, 68.0° (Epoch: 21 September)

Event Time Altitude Azimuth Distance (km) Brightness Sun altitude
Exits shadow 22:53:52 15° 38° (NE) 1,611 4.0 -30.5°
Drops below altitude 10° 22:54:34 10° 36° (NE) 1,882 4.4 -30.6°
Sets 22:56:47 0° 33° (NNE) 2,771 5.4 -30.7°
